When you browse on this site, cookies collect data to enhance your experience and personalize the content and advertising you see.
Visit our Privacy Policy to learn more. By continuing to use the site, you agree to this use of cookies and data.
  • In Romania
  • List of Countries
  • For 7 days
  • Water Temperature
  • Weather Map
  • Weather Widgets
  • user-avatar
    Login

    Hourly Weather Galway

    Today, 3 April, Friday

    Time Temperature Precipitation Wind Pressure Humidity
    00:00 +6°C° 0 mm 2 mps 762 mmHg 95%
    01:00 +6°C° 0 mm 2 mps 762 mmHg 95%
    02:00 +5°C° 0 mm 2 mps 762 mmHg 95%
    03:00 +5°C° 0 mm 2 mps 762 mmHg 95%
    04:00 +5°C° 0 mm 2 mps 762 mmHg 96%
    05:00 +5°C° 0 mm 2 mps 762 mmHg 97%
    06:00 +6°C° 0.2 mm 2 mps 762 mmHg 95%
    07:00 +7°C° 0.2 mm 2 mps 762 mmHg 94%
    08:00 +8°C° 0.2 mm 3 mps 761 mmHg 92%
    09:00 +9°C° 0.2 mm 3 mps 761 mmHg 87%
    10:00 +10°C° 0.2 mm 4 mps 761 mmHg 83%
    11:00 +9°C° 0 mm 5 mps 762 mmHg 81%
    12:00 +10°C° 0.1 mm 5 mps 761 mmHg 78%
    13:00 +10°C° 0.1 mm 5 mps 761 mmHg 74%
    14:00 +10°C° 0.1 mm 6 mps 761 mmHg 71%
    15:00 +9°C° 0 mm 5 mps 761 mmHg 73%
    16:00 +8°C° 0 mm 4 mps 761 mmHg 75%
    17:00 +8°C° 0 mm 4 mps 760 mmHg 77%
    18:00 +7°C° 0 mm 3 mps 760 mmHg 81%
    19:00 +5°C° 0 mm 3 mps 761 mmHg 85%
    20:00 +4°C° 0 mm 3 mps 761 mmHg 90%
    21:00 +4°C° 0 mm 3 mps 761 mmHg 89%
    22:00 +4°C° 0 mm 3 mps 761 mmHg 88%
    23:00 +4°C° 0 mm 3 mps 761 mmHg 88%

    Tomorrow, 4 April, Saturday

    Time Temperature Precipitation Wind Pressure Humidity
    00:00 +4°C° 0 mm 3 mps 760 mmHg 86%
    01:00 +4°C° 0 mm 3 mps 760 mmHg 85%
    02:00 +4°C° 0 mm 4 mps 760 mmHg 83%
    03:00 +4°C° 0 mm 4 mps 759 mmHg 84%
    04:00 +4°C° 0 mm 4 mps 759 mmHg 84%
    05:00 +4°C° 0 mm 4 mps 758 mmHg 84%
    06:00 +5°C° 0 mm 5 mps 758 mmHg 81%
    07:00 +6°C° 0 mm 5 mps 758 mmHg 79%
    08:00 +7°C° 0 mm 6 mps 758 mmHg 76%
    09:00 +8°C° 0 mm 6 mps 758 mmHg 74%
    10:00 +8°C° 0 mm 6 mps 757 mmHg 72%
    11:00 +9°C° 0 mm 7 mps 757 mmHg 70%
    12:00 +9°C° 0 mm 7 mps 756 mmHg 70%
    13:00 +10°C° 0 mm 7 mps 756 mmHg 71%
    14:00 +10°C° 0 mm 8 mps 755 mmHg 71%
    15:00 +10°C° 0 mm 8 mps 754 mmHg 74%
    16:00 +10°C° 0 mm 8 mps 754 mmHg 76%
    17:00 +10°C° 0 mm 8 mps 753 mmHg 79%
    18:00 +9°C° 0 mm 8 mps 753 mmHg 81%
    19:00 +9°C° 0 mm 8 mps 753 mmHg 83%
    20:00 +9°C° 0 mm 8 mps 753 mmHg 85%
    21:00 +7°C° 0 mm 8 mps 752 mmHg 85%
    22:00 +7°C° 0 mm 8 mps 752 mmHg 85%
    23:00 +7°C° 0 mm 9 mps 752 mmHg 85%

    Day after tomorrow, 5 April, Sunday

    Time Temperature Precipitation Wind Pressure Humidity
    00:00 +7°C° 0.1 mm 8 mps 751 mmHg 85%
    01:00 +7°C° 0.1 mm 8 mps 750 mmHg 85%
    02:00 +7°C° 0.1 mm 8 mps 749 mmHg 84%
    03:00 +7°C° 0 mm 9 mps 748 mmHg 82%
    04:00 +7°C° 0 mm 9 mps 747 mmHg 80%
    05:00 +8°C° 0 mm 9 mps 746 mmHg 78%
    06:00 +8°C° 0.4 mm 10 mps 745 mmHg 82%
    07:00 +8°C° 0.4 mm 10 mps 745 mmHg 86%
    08:00 +9°C° 0.4 mm 11 mps 744 mmHg 90%
    09:00 +9°C° 0.1 mm 11 mps 744 mmHg 89%
    10:00 +11°C° 0.1 mm 10 mps 743 mmHg 89%
    11:00 +12°C° 0.1 mm 10 mps 743 mmHg 88%
    12:00 +12°C° 0.2 mm 10 mps 743 mmHg 87%
    13:00 +12°C° 0.2 mm 10 mps 742 mmHg 86%
    14:00 +12°C° 0.2 mm 10 mps 742 mmHg 86%
    15:00 +11°C° 1.9 mm 9 mps 742 mmHg 88%
    16:00 +10°C° 1.9 mm 9 mps 742 mmHg 90%
    17:00 +8°C° 1.9 mm 9 mps 741 mmHg 92%
    18:00 +9°C° 0.5 mm 8 mps 742 mmHg 91%
    19:00 +7°C° 0.5 mm 8 mps 743 mmHg 90%
    20:00 +8°C° 0.5 mm 7 mps 743 mmHg 89%
    21:00 +6°C° 0.4 mm 7 mps 744 mmHg 89%
    22:00 +6°C° 0.4 mm 7 mps 745 mmHg 89%
    23:00 +6°C° 0.4 mm 7 mps 746 mmHg 88%

    6 April, Monday

    Time Temperature Precipitation Wind Pressure Humidity
    00:00 +5°C° 0 mm 7 mps 747 mmHg 87%
    01:00 +4°C° 0 mm 7 mps 748 mmHg 86%
    02:00 +4°C° 0 mm 7 mps 749 mmHg 85%
    03:00 +4°C° 0.1 mm 6 mps 750 mmHg 86%
    04:00 +3°C° 0.1 mm 6 mps 752 mmHg 86%
    05:00 +3°C° 0.1 mm 5 mps 753 mmHg 87%
    06:00 +5°C° 0.1 mm 5 mps 754 mmHg 83%
    07:00 +5°C° 0.1 mm 6 mps 755 mmHg 78%
    08:00 +7°C° 0.1 mm 6 mps 757 mmHg 74%
    09:00 +8°C° 0.1 mm 6 mps 758 mmHg 68%
    10:00 +8°C° 0.1 mm 6 mps 759 mmHg 62%
    11:00 +9°C° 0.1 mm 6 mps 760 mmHg 56%
    12:00 +9°C° 0 mm 6 mps 761 mmHg 56%
    13:00 +9°C° 0 mm 6 mps 762 mmHg 55%
    14:00 +9°C° 0 mm 5 mps 763 mmHg 55%
    15:00 +8°C° 0 mm 5 mps 764 mmHg 59%
    16:00 +8°C° 0 mm 4 mps 764 mmHg 64%
    17:00 +7°C° 0 mm 4 mps 765 mmHg 68%
    18:00 +7°C° 0 mm 3 mps 765 mmHg 72%
    19:00 +5°C° 0 mm 3 mps 766 mmHg 76%
    20:00 +3°C° 0 mm 3 mps 767 mmHg 80%
    21:00 +3°C° 0 mm 3 mps 767 mmHg 81%
    22:00 +3°C° 0 mm 4 mps 767 mmHg 81%
    23:00 +3°C° 0 mm 4 mps 768 mmHg 82%

    7 April, Tuesday

    Time Temperature Precipitation Wind Pressure Humidity
    00:00 +3°C° 0 mm 4 mps 768 mmHg 84%
    01:00 +3°C° 0 mm 4 mps 768 mmHg 87%
    02:00 +3°C° 0 mm 4 mps 768 mmHg 89%
    03:00 +3°C° 0 mm 4 mps 768 mmHg 91%
    04:00 +3°C° 0 mm 4 mps 768 mmHg 92%
    05:00 +3°C° 0 mm 4 mps 768 mmHg 94%
    06:00 +3°C° 0 mm 5 mps 768 mmHg 87%
    07:00 +6°C° 0 mm 5 mps 768 mmHg 80%
    08:00 +8°C° 0 mm 6 mps 768 mmHg 73%
    09:00 +9°C° 0 mm 7 mps 768 mmHg 70%
    10:00 +11°C° 0 mm 7 mps 768 mmHg 67%
    11:00 +12°C° 0 mm 7 mps 769 mmHg 64%
    12:00 +12°C° 0 mm 7 mps 768 mmHg 64%
    13:00 +12°C° 0 mm 7 mps 768 mmHg 64%
    14:00 +12°C° 0 mm 7 mps 768 mmHg 64%
    15:00 +13°C° 0 mm 6 mps 768 mmHg 67%
    16:00 +11°C° 0 mm 6 mps 768 mmHg 71%
    17:00 +10°C° 0 mm 5 mps 768 mmHg 74%
    18:00 +9°C° 0 mm 5 mps 768 mmHg 79%
    19:00 +8°C° 0 mm 4 mps 769 mmHg 85%
    20:00 +6°C° 0 mm 4 mps 769 mmHg 90%
    21:00 +6°C° 0 mm 4 mps 769 mmHg 91%
    22:00 +6°C° 0 mm 4 mps 769 mmHg 93%
    23:00 +5°C° 0 mm 4 mps 769 mmHg 94%

    8 April, Wednesday

    Time Temperature Precipitation Wind Pressure Humidity
    00:00 +5°C° 0 mm 4 mps 769 mmHg 94%
    01:00 +4°C° 0 mm 4 mps 768 mmHg 94%
    02:00 +4°C° 0 mm 4 mps 768 mmHg 94%
    03:00 +4°C° 0 mm 4 mps 768 mmHg 94%
    04:00 +3°C° 0 mm 4 mps 767 mmHg 94%
    05:00 +3°C° 0 mm 4 mps 767 mmHg 94%
    06:00 +5°C° 0 mm 4 mps 767 mmHg 90%
    07:00 +7°C° 0 mm 5 mps 766 mmHg 86%
    08:00 +10°C° 0 mm 6 mps 766 mmHg 82%
    09:00 +11°C° 0 mm 7 mps 766 mmHg 78%
    10:00 +12°C° 0 mm 7 mps 765 mmHg 73%
    11:00 +15°C° 0 mm 8 mps 765 mmHg 69%
    12:00 +15°C° 0 mm 8 mps 765 mmHg 68%
    13:00 +16°C° 0 mm 8 mps 764 mmHg 67%
    14:00 +16°C° 0 mm 8 mps 764 mmHg 66%
    15:00 +15°C° 0 mm 8 mps 763 mmHg 68%
    16:00 +14°C° 0 mm 7 mps 763 mmHg 71%
    17:00 +12°C° 0 mm 7 mps 762 mmHg 73%
    18:00 +12°C° 0 mm 7 mps 762 mmHg 78%
    19:00 +11°C° 0 mm 7 mps 762 mmHg 82%
    20:00 +10°C° 0 mm 7 mps 762 mmHg 86%
    21:00 +10°C° 0.1 mm 7 mps 762 mmHg 85%
    22:00 +10°C° 0.1 mm 8 mps 761 mmHg 83%
    23:00 +10°C° 0.1 mm 8 mps 761 mmHg 81%
    Show more